Year,Month,Day,Hour,Minute,Value (Times are PST for temperature in C)
2009,05,18,00,00,14.30
2009,05,18,00,01,14.30
2009,05,18,00,02,14.30
2009,05,18,00,03,14.30
2009,05,18,00,04,14.20
2009,05,18,00,05,14.20
2009,05,18,00,06,14.20
2009,05,18,00,07,14.10
2009,05,18,00,08,14.10
2009,05,18,00,09,14.10
2009,05,18,00,10,14.00
2009,05,18,00,11,14.00
2009,05,18,00,12,13.90
2009,05,18,00,13,13.90
2009,05,18,00,14,13.90
2009,05,18,00,15,13.90
2009,05,18,00,16,13.90
2009,05,18,00,17,13.80
2009,05,18,00,18,13.80
2009,05,18,00,19,13.80
2009,05,18,00,20,13.80
2009,05,18,00,21,13.80
2009,05,18,00,22,13.80
2009,05,18,00,23,13.70
2009,05,18,00,24,13.70
2009,05,18,00,25,13.70
2009,05,18,00,26,13.70
2009,05,18,00,27,13.70
2009,05,18,00,28,13.70
2009,05,18,00,29,13.70
2009,05,18,00,30,13.70
2009,05,18,00,31,13.70
2009,05,18,00,32,13.60
2009,05,18,00,33,13.60
2009,05,18,00,34,13.60
2009,05,18,00,35,13.60
2009,05,18,00,36,13.60
2009,05,18,00,37,13.60
2009,05,18,00,38,13.60
2009,05,18,00,39,13.50
2009,05,18,00,40,13.50
2009,05,18,00,41,13.50
2009,05,18,00,42,13.40
2009,05,18,00,43,13.40
2009,05,18,00,44,13.40
2009,05,18,00,45,13.40
2009,05,18,00,46,13.40
2009,05,18,00,47,13.40
2009,05,18,00,48,13.40
2009,05,18,00,49,13.30
2009,05,18,00,50,13.30
2009,05,18,00,51,13.30
2009,05,18,00,52,13.30
2009,05,18,00,53,13.30
2009,05,18,00,54,13.30
2009,05,18,00,55,13.30
2009,05,18,00,56,13.30
2009,05,18,00,57,13.30
2009,05,18,00,58,13.30
2009,05,18,00,59,13.30
2009,05,18,01,00,13.20
2009,05,18,01,01,13.20
2009,05,18,01,02,13.20
2009,05,18,01,03,13.20
2009,05,18,01,04,13.20
2009,05,18,01,05,13.10
2009,05,18,01,06,13.10
2009,05,18,01,07,13.10
2009,05,18,01,08,13.10
2009,05,18,01,09,13.10
2009,05,18,01,10,13.00
2009,05,18,01,11,13.00
2009,05,18,01,12,13.00
2009,05,18,01,13,12.90
2009,05,18,01,14,12.90
2009,05,18,01,15,12.90
2009,05,18,01,16,12.80
2009,05,18,01,17,12.80
2009,05,18,01,18,12.80
2009,05,18,01,19,12.70
2009,05,18,01,20,12.70
2009,05,18,01,21,12.60
2009,05,18,01,22,12.60
2009,05,18,01,23,12.50
2009,05,18,01,24,12.50
2009,05,18,01,25,12.40
2009,05,18,01,26,12.40
2009,05,18,01,27,12.40
2009,05,18,01,28,12.40
2009,05,18,01,29,12.40
2009,05,18,01,30,12.30
2009,05,18,01,31,12.30
2009,05,18,01,32,12.30
2009,05,18,01,33,12.30
2009,05,18,01,34,12.30
2009,05,18,01,35,12.30
2009,05,18,01,36,12.30
2009,05,18,01,37,12.30
2009,05,18,01,38,12.30
2009,05,18,01,39,12.30
2009,05,18,01,40,12.30
2009,05,18,01,41,12.20
2009,05,18,01,42,12.20
2009,05,18,01,43,12.20
2009,05,18,01,44,12.20
2009,05,18,01,45,12.20
2009,05,18,01,46,12.10
2009,05,18,01,47,12.10
2009,05,18,01,48,12.10
2009,05,18,01,49,12.10
2009,05,18,01,50,12.10
2009,05,18,01,51,12.00
2009,05,18,01,52,12.00
2009,05,18,01,53,12.00
2009,05,18,01,54,12.00
2009,05,18,01,55,12.10
2009,05,18,01,56,12.10
2009,05,18,01,57,12.10
2009,05,18,01,58,12.10
2009,05,18,01,59,12.10
2009,05,18,02,00,12.10
2009,05,18,02,01,12.10
2009,05,18,02,02,12.10
2009,05,18,02,03,12.10
2009,05,18,02,04,12.10
2009,05,18,02,05,12.10
2009,05,18,02,06,12.10
2009,05,18,02,07,12.00
2009,05,18,02,08,12.00
2009,05,18,02,09,12.00
2009,05,18,02,10,12.00
2009,05,18,02,11,11.90
2009,05,18,02,12,11.90
2009,05,18,02,13,11.90
2009,05,18,02,14,11.90
2009,05,18,02,15,11.90
2009,05,18,02,16,11.90
2009,05,18,02,17,11.90
2009,05,18,02,18,11.90
2009,05,18,02,19,11.90
2009,05,18,02,20,11.90
2009,05,18,02,21,11.80
2009,05,18,02,22,11.80
2009,05,18,02,23,11.80
2009,05,18,02,24,11.80
2009,05,18,02,25,11.80
2009,05,18,02,26,11.80
2009,05,18,02,27,11.80
2009,05,18,02,28,11.80
2009,05,18,02,29,11.70
2009,05,18,02,30,11.70
2009,05,18,02,31,11.70
2009,05,18,02,32,11.70
2009,05,18,02,33,11.70
2009,05,18,02,34,11.70
2009,05,18,02,35,11.70
2009,05,18,02,36,11.70
2009,05,18,02,37,11.70
2009,05,18,02,38,11.70
2009,05,18,02,39,11.70
2009,05,18,02,40,11.70
2009,05,18,02,41,11.70
2009,05,18,02,42,11.70
2009,05,18,02,43,11.70
2009,05,18,02,44,11.70
2009,05,18,02,45,11.70
2009,05,18,02,46,11.60
2009,05,18,02,47,11.60
2009,05,18,02,48,11.60
2009,05,18,02,49,11.60
2009,05,18,02,50,11.60
2009,05,18,02,51,11.60
2009,05,18,02,52,11.60
2009,05,18,02,53,11.60
2009,05,18,02,54,11.60
2009,05,18,02,55,11.60
2009,05,18,02,56,11.60
2009,05,18,02,57,11.60
2009,05,18,02,58,11.60
2009,05,18,02,59,11.50
2009,05,18,03,00,11.50
2009,05,18,03,01,11.50
2009,05,18,03,02,11.50
2009,05,18,03,03,11.40
2009,05,18,03,04,11.40
2009,05,18,03,05,11.40
2009,05,18,03,06,11.40
2009,05,18,03,07,11.40
2009,05,18,03,08,11.40
2009,05,18,03,09,11.40
2009,05,18,03,10,11.40
2009,05,18,03,11,11.30
2009,05,18,03,12,11.30
2009,05,18,03,13,11.30
2009,05,18,03,14,11.30
2009,05,18,03,15,11.30
2009,05,18,03,16,11.30
2009,05,18,03,17,11.30
2009,05,18,03,18,11.30
2009,05,18,03,19,11.30
2009,05,18,03,20,11.30
2009,05,18,03,21,11.30
2009,05,18,03,22,11.30
2009,05,18,03,23,11.40
2009,05,18,03,24,11.40
2009,05,18,03,25,11.40
2009,05,18,03,26,11.40
2009,05,18,03,27,11.40
2009,05,18,03,28,11.40
2009,05,18,03,29,11.40
2009,05,18,03,30,11.40
2009,05,18,03,31,11.40
2009,05,18,03,32,11.40
2009,05,18,03,33,11.40
2009,05,18,03,34,11.40
2009,05,18,03,35,11.40
2009,05,18,03,36,11.30
2009,05,18,03,37,11.30
2009,05,18,03,38,11.30
2009,05,18,03,39,11.30
2009,05,18,03,40,11.20
2009,05,18,03,41,11.20
2009,05,18,03,42,11.20
2009,05,18,03,43,11.10
2009,05,18,03,44,11.10
2009,05,18,03,45,11.10
2009,05,18,03,46,11.10
2009,05,18,03,47,11.00
2009,05,18,03,48,11.00
2009,05,18,03,49,11.00
2009,05,18,03,50,10.90
2009,05,18,03,51,10.90
2009,05,18,03,52,10.90
2009,05,18,03,53,10.90
2009,05,18,03,54,10.90
2009,05,18,03,55,10.80
2009,05,18,03,56,10.80
2009,05,18,03,57,10.80
2009,05,18,03,58,10.80
2009,05,18,03,59,10.80
2009,05,18,04,00,10.80
2009,05,18,04,01,10.80
2009,05,18,04,02,10.80
2009,05,18,04,03,10.80
2009,05,18,04,19,10.80
2009,05,18,04,21,10.80
2009,05,18,04,22,10.80
2009,05,18,04,23,10.80
2009,05,18,04,24,10.80
2009,05,18,04,25,10.80
2009,05,18,04,26,10.80
2009,05,18,04,27,10.80
2009,05,18,04,28,10.80
2009,05,18,04,29,10.80
2009,05,18,04,30,10.80
2009,05,18,04,31,10.80
2009,05,18,04,32,10.90
2009,05,18,04,33,10.90
2009,05,18,04,34,10.90
2009,05,18,04,35,10.90
2009,05,18,04,36,10.90
2009,05,18,04,37,10.90
2009,05,18,04,38,10.90
2009,05,18,04,39,10.90
2009,05,18,04,40,11.00
2009,05,18,04,41,11.00
2009,05,18,04,42,11.00
2009,05,18,04,43,11.00
2009,05,18,04,44,11.10
2009,05,18,04,45,11.10
2009,05,18,04,46,11.10
2009,05,18,04,47,11.10
2009,05,18,04,48,11.10
2009,05,18,04,49,11.10
2009,05,18,04,50,11.10
2009,05,18,04,51,11.10
2009,05,18,04,52,11.10
2009,05,18,04,53,11.20
2009,05,18,04,54,11.20
2009,05,18,04,55,11.20
2009,05,18,04,56,11.20
2009,05,18,04,57,11.20
2009,05,18,04,58,11.20
2009,05,18,04,59,11.20
2009,05,18,05,00,11.20
2009,05,18,05,01,11.20
2009,05,18,05,02,11.20
2009,05,18,05,03,11.20
2009,05,18,05,04,11.20
2009,05,18,05,05,11.20
2009,05,18,05,06,11.20
2009,05,18,05,07,11.20
2009,05,18,05,08,11.20
2009,05,18,05,09,11.20
2009,05,18,05,10,11.20
2009,05,18,05,11,11.20
2009,05,18,05,12,11.10
2009,05,18,05,13,11.10
2009,05,18,05,14,11.10
2009,05,18,05,15,11.10
2009,05,18,05,16,11.10
2009,05,18,05,17,11.10
2009,05,18,05,18,11.10
2009,05,18,05,19,11.10
2009,05,18,05,20,11.10
2009,05,18,05,21,11.10
2009,05,18,05,22,11.10
2009,05,18,05,23,11.10
2009,05,18,05,24,11.10
2009,05,18,05,25,11.10
2009,05,18,05,26,11.10
2009,05,18,05,27,11.10
2009,05,18,05,28,11.00
2009,05,18,05,29,11.00
2009,05,18,05,30,11.00
2009,05,18,05,31,11.00
2009,05,18,05,32,11.00
2009,05,18,05,33,11.00
2009,05,18,05,34,11.00
2009,05,18,05,35,11.00
2009,05,18,05,36,11.00
2009,05,18,05,37,11.00
2009,05,18,05,38,11.00
2009,05,18,05,39,11.00
2009,05,18,05,40,11.00
2009,05,18,05,41,10.90
2009,05,18,05,42,10.90
2009,05,18,05,43,10.90
2009,05,18,05,44,10.90
2009,05,18,05,45,10.90
2009,05,18,05,46,10.90
2009,05,18,05,47,10.90
2009,05,18,05,48,10.90
2009,05,18,05,49,10.90
2009,05,18,05,50,10.90
2009,05,18,05,51,10.90
2009,05,18,05,52,10.90
2009,05,18,05,53,10.90
2009,05,18,05,54,10.90
2009,05,18,05,55,10.90
2009,05,18,05,56,10.90
2009,05,18,05,57,10.90
2009,05,18,05,58,10.90
2009,05,18,05,59,11.00
2009,05,18,06,00,11.00
2009,05,18,06,01,11.00
2009,05,18,06,02,11.00
2009,05,18,06,03,11.00
2009,05,18,06,04,11.10
2009,05,18,06,05,11.10
2009,05,18,06,06,11.10
2009,05,18,06,07,11.20
2009,05,18,06,08,11.20
2009,05,18,06,09,11.20
2009,05,18,06,10,11.20
2009,05,18,06,11,11.20
2009,05,18,06,12,11.20
2009,05,18,06,13,11.30
2009,05,18,06,14,11.30
2009,05,18,06,15,11.30
2009,05,18,06,16,11.30
2009,05,18,06,17,11.30
2009,05,18,06,18,11.30
2009,05,18,06,19,11.30
2009,05,18,06,20,11.30
2009,05,18,06,21,11.30
2009,05,18,06,22,11.30
2009,05,18,06,23,11.30
2009,05,18,06,24,11.30
2009,05,18,06,25,11.30
2009,05,18,06,26,11.30
2009,05,18,06,27,11.30
2009,05,18,06,28,11.30
2009,05,18,06,29,11.30
2009,05,18,06,30,11.30
2009,05,18,06,31,11.30
2009,05,18,06,32,11.30
2009,05,18,06,33,11.30
2009,05,18,06,34,11.30
2009,05,18,06,35,11.30
2009,05,18,06,36,11.30
2009,05,18,06,37,11.40
2009,05,18,06,38,11.40
2009,05,18,06,39,11.40
2009,05,18,06,40,11.40
2009,05,18,06,41,11.40
2009,05,18,06,42,11.50
2009,05,18,06,43,11.50
2009,05,18,06,44,11.50
2009,05,18,06,45,11.50
2009,05,18,06,46,11.50
2009,05,18,06,47,11.50
2009,05,18,06,48,11.60
2009,05,18,06,49,11.60
2009,05,18,06,50,11.60
2009,05,18,06,51,11.60
2009,05,18,06,52,11.60
2009,05,18,06,53,11.60
2009,05,18,06,54,11.70
2009,05,18,06,55,11.70
2009,05,18,06,56,11.70
2009,05,18,06,57,11.70
2009,05,18,06,58,11.70
2009,05,18,06,59,11.70
2009,05,18,07,00,11.70
2009,05,18,07,01,11.70
2009,05,18,07,02,11.70
2009,05,18,07,03,11.70
2009,05,18,07,04,11.70
2009,05,18,07,05,11.80
2009,05,18,07,06,11.80
2009,05,18,07,07,11.80
2009,05,18,07,08,11.80
2009,05,18,07,09,11.80
2009,05,18,07,10,11.80
2009,05,18,07,11,11.80
2009,05,18,07,12,11.80
2009,05,18,07,13,11.80
2009,05,18,07,14,11.80
2009,05,18,07,15,11.80
2009,05,18,07,16,11.90
2009,05,18,07,17,11.90
2009,05,18,07,18,11.90
2009,05,18,07,19,11.90
2009,05,18,07,20,11.90
2009,05,18,07,21,11.90
2009,05,18,07,22,11.90
2009,05,18,07,23,12.00
2009,05,18,07,24,12.00
2009,05,18,07,25,12.00
2009,05,18,07,26,12.00
2009,05,18,07,27,12.00
2009,05,18,07,28,12.00
2009,05,18,07,29,12.00
2009,05,18,07,30,12.00
2009,05,18,07,31,12.00
2009,05,18,07,32,12.00
2009,05,18,07,33,12.00
2009,05,18,07,34,12.10
2009,05,18,07,35,12.10
2009,05,18,07,36,12.10
2009,05,18,07,37,12.10
2009,05,18,07,38,12.10
2009,05,18,07,39,12.10
2009,05,18,07,40,12.10
2009,05,18,07,41,12.10
2009,05,18,07,42,12.20
2009,05,18,07,43,12.20
2009,05,18,07,44,12.20
2009,05,18,07,45,12.20
2009,05,18,07,46,12.30
2009,05,18,07,47,12.30
2009,05,18,07,48,12.30
2009,05,18,07,49,12.40
2009,05,18,07,50,12.40
2009,05,18,07,51,12.50
2009,05,18,07,52,12.50
2009,05,18,07,53,12.50
2009,05,18,07,54,12.60
2009,05,18,07,55,12.60
2009,05,18,07,56,12.60
2009,05,18,07,57,12.70
2009,05,18,07,58,12.70
2009,05,18,07,59,12.70
2009,05,18,08,00,12.80
2009,05,18,08,01,12.80
2009,05,18,08,02,12.80
2009,05,18,08,03,12.80
2009,05,18,08,04,12.80
2009,05,18,08,05,12.80
2009,05,18,08,06,12.70
2009,05,18,08,07,12.70
2009,05,18,08,08,12.60
2009,05,18,08,09,12.60
2009,05,18,08,10,12.50
2009,05,18,08,11,12.50
2009,05,18,08,12,12.40
2009,05,18,08,13,12.40
2009,05,18,08,14,12.40
2009,05,18,08,15,12.40
2009,05,18,08,16,12.40
2009,05,18,08,17,12.50
2009,05,18,08,18,12.50
2009,05,18,08,19,12.50
2009,05,18,08,20,12.50
2009,05,18,08,21,12.60
2009,05,18,08,22,12.60
2009,05,18,08,23,12.60
2009,05,18,08,24,12.60
2009,05,18,08,25,12.60
2009,05,18,08,26,12.70
2009,05,18,08,27,12.70
2009,05,18,08,28,12.70
2009,05,18,08,29,12.70
2009,05,18,08,30,12.70
2009,05,18,08,31,12.70
2009,05,18,08,32,12.70
2009,05,18,08,33,12.70
2009,05,18,08,34,12.70
2009,05,18,08,35,12.70
2009,05,18,08,36,12.70
2009,05,18,08,37,12.80
2009,05,18,08,38,12.80
2009,05,18,08,39,12.80
2009,05,18,08,40,12.80
2009,05,18,08,41,12.80
2009,05,18,08,42,12.80
2009,05,18,08,43,12.80
2009,05,18,08,44,12.80
2009,05,18,08,45,12.80
2009,05,18,08,46,12.90
2009,05,18,08,47,12.90
2009,05,18,08,48,12.90
2009,05,18,08,49,12.90
2009,05,18,08,50,12.90
2009,05,18,08,51,12.90
2009,05,18,08,52,12.90
2009,05,18,08,53,12.90
2009,05,18,08,54,12.90
2009,05,18,08,55,12.90
2009,05,18,08,56,12.90
2009,05,18,08,57,12.90
2009,05,18,08,58,12.90
2009,05,18,08,59,12.90
2009,05,18,09,00,12.90
2009,05,18,09,01,13.00
2009,05,18,09,02,13.00
2009,05,18,09,03,13.00
2009,05,18,09,04,13.00
2009,05,18,09,05,13.00
2009,05,18,09,06,13.00
2009,05,18,09,07,13.00
2009,05,18,09,08,13.00
2009,05,18,09,09,13.00
2009,05,18,09,10,13.00
2009,05,18,09,11,13.10
2009,05,18,09,12,13.10
2009,05,18,09,13,13.10
2009,05,18,09,14,13.10
2009,05,18,09,15,13.10
2009,05,18,09,16,13.10
2009,05,18,09,17,13.10
2009,05,18,09,18,13.10
2009,05,18,09,19,13.10
2009,05,18,09,20,13.20
2009,05,18,09,21,13.20
2009,05,18,09,22,13.20
2009,05,18,09,23,13.20
2009,05,18,09,24,13.30
2009,05,18,09,25,13.30
2009,05,18,09,26,13.30
2009,05,18,09,27,13.30
2009,05,18,09,28,13.30
2009,05,18,09,29,13.40
2009,05,18,09,30,13.40
2009,05,18,09,31,13.40
2009,05,18,09,32,13.40
2009,05,18,09,33,13.40
2009,05,18,09,34,13.40
2009,05,18,09,35,13.40
2009,05,18,09,36,13.40
2009,05,18,09,37,13.40
2009,05,18,09,38,13.40
2009,05,18,09,39,13.40
2009,05,18,09,40,13.40
2009,05,18,09,41,13.40
2009,05,18,09,42,13.30
2009,05,18,09,43,13.30
2009,05,18,09,44,13.30
2009,05,18,09,45,13.30
2009,05,18,09,46,13.30
2009,05,18,09,47,13.30
2009,05,18,09,48,13.30
2009,05,18,09,49,13.30
2009,05,18,09,50,13.40
2009,05,18,09,51,13.40
2009,05,18,09,52,13.40
2009,05,18,09,53,13.40
2009,05,18,09,54,13.40
2009,05,18,09,55,13.50
2009,05,18,09,56,13.50
2009,05,18,09,57,13.50
2009,05,18,09,58,13.50
2009,05,18,09,59,13.40
2009,05,18,10,00,13.40
2009,05,18,10,01,13.40
2009,05,18,10,02,13.40
2009,05,18,10,03,13.50
2009,05,18,10,04,13.50
2009,05,18,10,05,13.50
2009,05,18,10,06,13.50
2009,05,18,10,07,13.50
2009,05,18,10,08,13.60
2009,05,18,10,09,13.60
2009,05,18,10,10,13.60
2009,05,18,10,11,13.60
2009,05,18,10,12,13.50
2009,05,18,10,13,13.50
2009,05,18,10,14,13.40
2009,05,18,10,15,13.40
2009,05,18,10,16,13.30
2009,05,18,10,17,13.30
2009,05,18,10,18,13.30
2009,05,18,10,19,13.20
2009,05,18,10,20,13.20
2009,05,18,10,21,13.20
2009,05,18,10,22,13.20
2009,05,18,10,23,13.20
2009,05,18,10,24,13.20
2009,05,18,10,25,13.20
2009,05,18,10,26,13.20
2009,05,18,10,27,13.20
2009,05,18,10,28,13.20
2009,05,18,10,29,13.20
2009,05,18,10,30,13.10
2009,05,18,10,31,13.20
2009,05,18,10,32,13.20
2009,05,18,10,33,13.20
2009,05,18,10,34,13.20
2009,05,18,10,35,13.20
2009,05,18,10,36,13.30
2009,05,18,10,37,13.30
2009,05,18,10,38,13.30
2009,05,18,10,39,13.30
2009,05,18,10,40,13.30
2009,05,18,10,41,13.30
2009,05,18,10,42,13.40
2009,05,18,10,43,13.40
2009,05,18,10,44,13.40
2009,05,18,10,45,13.40
2009,05,18,10,46,13.50
2009,05,18,10,47,13.50
2009,05,18,10,48,13.50
2009,05,18,10,49,13.60
2009,05,18,10,50,13.60
2009,05,18,10,51,13.60
2009,05,18,10,52,13.70
2009,05,18,10,53,13.70
2009,05,18,10,54,13.70
2009,05,18,10,55,13.80
2009,05,18,10,56,13.80
2009,05,18,10,57,13.80
2009,05,18,10,58,13.90
2009,05,18,10,59,13.90
2009,05,18,11,00,13.90
2009,05,18,11,01,13.90
2009,05,18,11,02,14.00
2009,05,18,11,03,14.00
2009,05,18,11,04,14.00
2009,05,18,11,05,14.00
2009,05,18,11,06,14.00
2009,05,18,11,07,14.00
2009,05,18,11,08,14.00
2009,05,18,11,09,14.00
2009,05,18,11,10,14.00
2009,05,18,11,11,13.90
2009,05,18,11,12,13.90
2009,05,18,11,13,13.90
2009,05,18,11,14,13.90
2009,05,18,11,15,13.90
2009,05,18,11,16,13.90
2009,05,18,11,17,13.90
2009,05,18,11,18,14.00
2009,05,18,11,19,14.00
2009,05,18,11,20,14.00
2009,05,18,11,21,14.00
2009,05,18,11,22,14.10
2009,05,18,11,23,14.10
2009,05,18,11,24,14.10
2009,05,18,11,25,14.20
2009,05,18,11,26,14.20
2009,05,18,11,27,14.20
2009,05,18,11,28,14.20
2009,05,18,11,29,14.20
2009,05,18,11,30,14.20
2009,05,18,11,31,14.30
2009,05,18,11,32,14.30
2009,05,18,11,33,14.30
2009,05,18,11,34,14.40
2009,05,18,11,35,14.40
2009,05,18,11,36,14.40
2009,05,18,11,37,14.50
2009,05,18,11,38,14.50
2009,05,18,11,39,14.60
2009,05,18,11,40,14.60
2009,05,18,11,41,14.60
2009,05,18,11,42,14.60
2009,05,18,11,43,14.60
2009,05,18,11,44,14.60
2009,05,18,11,45,14.60
2009,05,18,11,46,14.60
2009,05,18,11,47,14.60
2009,05,18,11,48,14.70
2009,05,18,11,49,14.70
2009,05,18,11,50,14.70
2009,05,18,11,51,14.70
2009,05,18,11,52,14.70
2009,05,18,11,53,14.60
2009,05,18,11,54,14.50
2009,05,18,11,55,14.40
2009,05,18,11,56,14.40
2009,05,18,11,57,14.30
2009,05,18,11,58,14.20
2009,05,18,11,59,14.10
2009,05,18,12,00,14.00
2009,05,18,12,01,14.00
2009,05,18,12,02,13.90
2009,05,18,12,03,13.90
2009,05,18,12,04,13.80
2009,05,18,12,05,13.70
2009,05,18,12,06,13.70
2009,05,18,12,07,13.60
2009,05,18,12,08,13.60
2009,05,18,12,09,13.50
2009,05,18,12,10,13.40
2009,05,18,12,11,13.30
2009,05,18,12,12,13.20
2009,05,18,12,13,13.10
2009,05,18,12,14,13.00
2009,05,18,12,15,13.00
2009,05,18,12,16,12.90
2009,05,18,12,17,12.90
2009,05,18,12,18,12.90
2009,05,18,12,19,12.90
2009,05,18,12,20,12.90
2009,05,18,12,21,12.90
2009,05,18,12,22,12.90
2009,05,18,12,23,12.90
2009,05,18,12,24,12.90
2009,05,18,12,25,12.80
2009,05,18,12,26,12.80
2009,05,18,12,27,12.80
2009,05,18,12,28,12.80
2009,05,18,12,29,12.90
2009,05,18,12,30,12.90
2009,05,18,12,31,12.90
2009,05,18,12,32,13.00
2009,05,18,12,33,13.00
2009,05,18,12,34,13.00
2009,05,18,12,35,13.00
2009,05,18,12,36,13.00
2009,05,18,12,37,13.10
2009,05,18,12,38,13.10
2009,05,18,12,39,13.10
2009,05,18,12,40,13.10
2009,05,18,12,41,13.20
2009,05,18,12,42,13.20
2009,05,18,12,43,13.30
2009,05,18,12,44,13.30
2009,05,18,12,45,13.30
2009,05,18,12,46,13.30
2009,05,18,12,47,13.40
2009,05,18,12,48,13.40
2009,05,18,12,49,13.40
2009,05,18,12,50,13.40
2009,05,18,12,51,13.40
2009,05,18,12,52,13.40
2009,05,18,12,53,13.40
2009,05,18,12,54,13.40
2009,05,18,12,55,13.40
2009,05,18,12,56,13.40
2009,05,18,12,57,13.40
2009,05,18,12,58,13.40
2009,05,18,12,59,13.40
2009,05,18,13,00,13.40
2009,05,18,13,01,13.40
2009,05,18,13,02,13.50
2009,05,18,13,03,13.50
2009,05,18,13,04,13.50
2009,05,18,13,05,13.50
2009,05,18,13,06,13.50
2009,05,18,13,07,13.50
2009,05,18,13,08,13.50
2009,05,18,13,09,13.50
2009,05,18,13,10,13.50
2009,05,18,13,11,13.50
2009,05,18,13,12,13.60
2009,05,18,13,13,13.60
2009,05,18,13,14,13.60
2009,05,18,13,15,13.70
2009,05,18,13,16,13.80
2009,05,18,13,17,13.80
2009,05,18,13,18,13.80
2009,05,18,13,19,13.80
2009,05,18,13,20,13.90
2009,05,18,13,21,13.80
2009,05,18,13,22,13.90
2009,05,18,13,23,13.90
2009,05,18,13,24,13.90
2009,05,18,13,25,14.00
2009,05,18,13,26,14.00
2009,05,18,13,27,14.00
2009,05,18,13,28,14.00
2009,05,18,13,29,14.10
2009,05,18,13,30,14.10
2009,05,18,13,31,14.10
2009,05,18,13,32,14.10
2009,05,18,13,33,14.00
2009,05,18,13,34,14.00
2009,05,18,13,35,13.90
2009,05,18,13,36,13.90
2009,05,18,13,37,13.90
2009,05,18,13,38,13.80
2009,05,18,13,39,13.80
2009,05,18,13,40,13.80
2009,05,18,13,41,13.80
2009,05,18,13,42,13.80
2009,05,18,13,43,13.90
2009,05,18,13,44,13.90
2009,05,18,13,45,14.00
2009,05,18,13,46,14.00
2009,05,18,13,47,14.10
2009,05,18,13,48,14.10
2009,05,18,13,49,14.20
2009,05,18,13,50,14.20
2009,05,18,13,51,14.30
2009,05,18,13,52,14.30
2009,05,18,13,53,14.30
2009,05,18,13,54,14.40
2009,05,18,13,55,14.40
2009,05,18,13,56,14.40
2009,05,18,13,57,14.40
2009,05,18,13,58,14.40
2009,05,18,13,59,14.50
2009,05,18,14,00,14.50
2009,05,18,14,01,14.40
2009,05,18,14,02,14.50
2009,05,18,14,03,14.50
2009,05,18,14,04,14.50
2009,05,18,14,05,14.50
2009,05,18,14,06,14.50
2009,05,18,14,07,14.50
2009,05,18,14,08,14.60
2009,05,18,14,09,14.60
2009,05,18,14,10,14.60
2009,05,18,14,11,14.60
2009,05,18,14,12,14.60
2009,05,18,14,13,14.60
2009,05,18,14,14,14.60
2009,05,18,14,15,14.60
2009,05,18,14,16,14.70
2009,05,18,14,17,14.70
2009,05,18,14,18,14.70
2009,05,18,14,19,14.80
2009,05,18,14,20,14.80
2009,05,18,14,21,14.80
2009,05,18,14,22,14.80
2009,05,18,14,23,14.70
2009,05,18,14,24,14.70
2009,05,18,14,25,14.70
2009,05,18,14,26,14.70
2009,05,18,14,27,14.70
2009,05,18,14,28,14.70
2009,05,18,14,29,14.70
2009,05,18,14,30,14.70
2009,05,18,14,31,14.70
2009,05,18,14,32,14.70
2009,05,18,14,33,14.60
2009,05,18,14,34,14.60
2009,05,18,14,35,14.50
2009,05,18,14,36,14.40
2009,05,18,14,37,14.30
2009,05,18,14,38,14.10
2009,05,18,14,39,13.70
2009,05,18,14,40,13.40
2009,05,18,14,41,13.10
2009,05,18,14,42,12.90
2009,05,18,14,43,12.70
2009,05,18,14,44,12.60
2009,05,18,14,45,12.50
2009,05,18,14,46,12.40
2009,05,18,14,47,12.40
2009,05,18,14,48,12.30
2009,05,18,14,49,12.30
2009,05,18,14,50,12.30
2009,05,18,14,51,12.30
2009,05,18,14,52,12.30
2009,05,18,14,53,12.40
2009,05,18,14,54,12.40
2009,05,18,14,55,12.50
2009,05,18,14,56,12.50
2009,05,18,14,57,12.60
2009,05,18,14,58,12.60
2009,05,18,14,59,12.60
2009,05,18,15,00,12.60
2009,05,18,15,01,12.70
2009,05,18,15,02,12.70
2009,05,18,15,03,12.70
2009,05,18,15,04,12.70
2009,05,18,15,05,12.80
2009,05,18,15,06,12.80
2009,05,18,15,07,12.80
2009,05,18,15,08,12.90
2009,05,18,15,09,12.90
2009,05,18,15,10,12.90
2009,05,18,15,11,13.00
2009,05,18,15,12,13.00
2009,05,18,15,13,13.10
2009,05,18,15,14,13.10
2009,05,18,15,15,13.10
2009,05,18,15,16,13.20
2009,05,18,15,17,13.20
2009,05,18,15,18,13.20
2009,05,18,15,19,13.20
2009,05,18,15,20,13.20
2009,05,18,15,21,13.20
2009,05,18,15,22,13.20
2009,05,18,15,23,13.20
2009,05,18,15,24,13.20
2009,05,18,15,25,13.20
2009,05,18,15,26,13.20
2009,05,18,15,27,13.20
2009,05,18,15,28,13.20
2009,05,18,15,29,13.20
2009,05,18,15,30,13.10
2009,05,18,15,31,13.10
2009,05,18,15,32,13.10
2009,05,18,15,33,13.20
2009,05,18,15,34,13.20
2009,05,18,15,35,13.20
2009,05,18,15,36,13.20
2009,05,18,15,37,13.20
2009,05,18,15,38,13.10
2009,05,18,15,39,13.10
2009,05,18,15,40,13.10
2009,05,18,15,41,13.20
2009,05,18,15,42,13.20
2009,05,18,15,43,13.20
2009,05,18,15,44,13.20
2009,05,18,15,45,13.10
2009,05,18,15,46,13.10
2009,05,18,15,47,13.10
2009,05,18,15,48,13.10
2009,05,18,15,49,13.00
2009,05,18,15,50,12.90
2009,05,18,15,51,12.90
2009,05,18,15,52,12.80
2009,05,18,15,53,12.80
2009,05,18,15,54,12.80
2009,05,18,15,55,12.80
2009,05,18,15,56,12.70
2009,05,18,15,57,12.70
2009,05,18,15,58,12.60
2009,05,18,15,59,12.60
2009,05,18,16,00,12.60
2009,05,18,16,01,12.50
2009,05,18,16,02,12.50
2009,05,18,16,03,12.50
2009,05,18,16,04,12.40
2009,05,18,16,05,12.40
2009,05,18,16,06,12.40
2009,05,18,16,07,12.40
2009,05,18,16,08,12.40
2009,05,18,16,09,12.40
2009,05,18,16,10,12.30
2009,05,18,16,11,12.30
2009,05,18,16,12,12.30
2009,05,18,16,13,12.30
2009,05,18,16,14,12.30
2009,05,18,16,15,12.30
2009,05,18,16,16,12.30
2009,05,18,16,17,12.30
2009,05,18,16,18,12.30
2009,05,18,16,19,12.30
2009,05,18,16,20,12.30
2009,05,18,16,21,12.30
2009,05,18,16,22,12.30
2009,05,18,16,23,12.30
2009,05,18,16,24,12.30
2009,05,18,16,25,12.30
2009,05,18,16,26,12.30
2009,05,18,16,27,12.30
2009,05,18,16,28,12.30
2009,05,18,16,29,12.30
2009,05,18,16,30,12.30
2009,05,18,16,31,12.30
2009,05,18,16,32,12.30
2009,05,18,16,33,12.20
2009,05,18,16,34,12.20
2009,05,18,16,35,12.10
2009,05,18,16,36,12.10
2009,05,18,16,37,12.00
2009,05,18,16,38,11.90
2009,05,18,16,39,11.80
2009,05,18,16,40,11.80
2009,05,18,16,41,11.70
2009,05,18,16,42,11.60
2009,05,18,16,43,11.60
2009,05,18,16,44,11.60
2009,05,18,16,45,11.50
2009,05,18,16,46,11.50
2009,05,18,16,47,11.40
2009,05,18,16,48,11.40
2009,05,18,16,49,11.40
2009,05,18,16,50,11.30
2009,05,18,16,51,11.30
2009,05,18,16,52,11.30
2009,05,18,16,53,11.30
2009,05,18,16,54,11.30
2009,05,18,16,55,11.30
2009,05,18,16,56,11.30
2009,05,18,16,57,11.30
2009,05,18,16,58,11.30
2009,05,18,16,59,11.20
2009,05,18,17,00,11.30
2009,05,18,17,01,11.20
2009,05,18,17,02,11.20
2009,05,18,17,03,11.20
2009,05,18,17,04,11.20
2009,05,18,17,05,11.20
2009,05,18,17,06,11.20
2009,05,18,17,07,11.20
2009,05,18,17,08,11.10
2009,05,18,17,09,11.10
2009,05,18,17,10,11.10
2009,05,18,17,11,11.10
2009,05,18,17,12,11.00
2009,05,18,17,13,11.00
2009,05,18,17,14,11.00
2009,05,18,17,15,11.00
2009,05,18,17,16,10.90
2009,05,18,17,17,10.90
2009,05,18,17,18,10.90
2009,05,18,17,19,10.90
2009,05,18,17,20,10.90
2009,05,18,17,21,10.90
2009,05,18,17,22,10.90
2009,05,18,17,23,10.90
2009,05,18,17,24,10.90
2009,05,18,17,25,10.90
2009,05,18,17,26,10.90
2009,05,18,17,27,10.90
2009,05,18,17,28,10.80
2009,05,18,17,29,10.80
2009,05,18,17,30,10.80
2009,05,18,17,31,10.80
2009,05,18,17,32,10.80
2009,05,18,17,33,10.80
2009,05,18,17,34,10.80
2009,05,18,17,35,10.80